Glenwood, MN

7:37 AM CDT on March 23, 2017 (GMT -0500)
Glenwood Municipal

Weather History for KGHW - June, 2013

Change the Weather History Date:

Sunday, June 16, 2013

  Actual Average Record
Temperature  
Mean Temperature 68 °F -  
Max Temperature 84 °F 76 °F 88 °F (1973)
Min Temperature 53 °F 51 °F 41 °F (1983)
Cooling Degree Days 4    
Growing Degree Days 18 (Base 50)    
Moisture  
Dew Point 51 °F    
Average Humidity 55    
Maximum Humidity 82    
Minimum Humidity 23    
Precipitation  
Precipitation 0.02 in - - ()
Sea Level Pressure  
Sea Level Pressure 29.91 in    
Wind  
Wind Speed 10 mph (WSW)    
Max Wind Speed 29 mph    
Max Gust Speed 38 mph    
Visibility 10 miles    
Events Rain , Thunderstorm    
Averages and records for this station are not official NWS values.
T = Trace of Precipitation, MM = Missing Value Source: NWS Daily Summary

Daily Weather History Graph

Daily Weather History Graph

Search for Another Location

Airport or City:

Trip Planner

Search our weather history database for the weather conditions in past years. The results will help you decide how hot, cold, wet, or windy it might be!

Date:

Astronomy

Jun. 16, 2013 Rise Set
Actual Time 5:31 AM CDT 9:12 PM CDT
Civil Twilight 4:53 AM CDT 9:51 PM CDT
Nautical Twilight 4:02 AM CDT 10:42 PM CDT
Astronomical Twilight 2:52 AM CDT 11:52 PM CDT
Moon 1:30 PM CDT (6/16) 12:57 AM CDT (6/16)
Length of Visible Light 16h 57m
Length of Day
15h 41m
Waxing Crescent, 50% of the Moon is Illuminated
Jun 16
Waxing Crescent
Jun 16
First Quarter
Jun 23
Full
Jun 29
Last Quarter
Jul 8
New

Hourly Weather History & Observations

Time (CDT) Temp. Dew Point Humidity Pressure Visibility Wind Dir Wind Speed Gust Speed Precip Events Conditions
12:13 AM 60.8 °F 48.2 °F 63% 29.92 in 10.0 mi WSW 6.9 mph - N/A   Clear
12:33 AM 60.8 °F 48.2 °F 63% 29.92 in 10.0 mi WSW 6.9 mph - N/A   Clear
12:53 AM 60.8 °F 48.2 °F 63% 29.92 in 10.0 mi WSW 5.8 mph - N/A   Clear
1:13 AM 60.8 °F 46.4 °F 59% 29.92 in 10.0 mi West 6.9 mph - N/A   Clear
1:33 AM 60.8 °F 48.2 °F 63% 29.92 in 10.0 mi West 6.9 mph - N/A   Clear
1:53 AM 60.8 °F 48.2 °F 63% 29.92 in 10.0 mi West 8.1 mph - N/A   Clear
2:13 AM 59.0 °F 48.2 °F 67% 29.92 in 10.0 mi West 8.1 mph - N/A   Clear
2:33 AM 57.2 °F 48.2 °F 72% 29.92 in 10.0 mi West 8.1 mph - N/A   Clear
2:53 AM 57.2 °F 48.2 °F 72% 29.92 in 10.0 mi WSW 6.9 mph - N/A   Clear
3:13 AM 57.2 °F 48.2 °F 72% 29.92 in 10.0 mi WSW 8.1 mph - N/A   Clear
3:33 AM 57.2 °F 50.0 °F 77% 29.91 in 10.0 mi West 8.1 mph - N/A   Clear
3:53 AM 57.2 °F 48.2 °F 72% 29.92 in 10.0 mi West 8.1 mph - N/A   Clear
4:13 AM 57.2 °F 48.2 °F 72% 29.92 in 10.0 mi WSW 8.1 mph - N/A   Clear
4:34 AM 55.4 °F 48.2 °F 77% 29.92 in 10.0 mi WSW 8.1 mph - N/A   Clear
4:53 AM 57.2 °F 50.0 °F 77% 29.93 in 10.0 mi West 8.1 mph - N/A   Clear
5:13 AM 57.2 °F 48.2 °F 72% 29.93 in 10.0 mi WSW 6.9 mph - N/A   Clear
5:34 AM 55.4 °F 48.2 °F 77% 29.93 in 10.0 mi WSW 5.8 mph - N/A   Clear
5:53 AM 53.6 °F 48.2 °F 82% 29.94 in 10.0 mi SW 5.8 mph - N/A   Clear
6:13 AM 55.4 °F 48.2 °F 77% 29.94 in 10.0 mi SW 6.9 mph - N/A   Clear
6:34 AM 57.2 °F 51.8 °F 82% 29.94 in 10.0 mi SW 8.1 mph - N/A   Clear
6:53 AM 60.8 °F 51.8 °F 72% 29.95 in 10.0 mi WSW 6.9 mph - N/A   Clear
7:13 AM 62.6 °F 51.8 °F 68% 29.95 in 10.0 mi WSW 9.2 mph - N/A   Clear
7:34 AM 64.4 °F 51.8 °F 64% 29.95 in 10.0 mi WSW 9.2 mph - N/A   Clear
7:53 AM 66.2 °F 50.0 °F 56% 29.95 in 10.0 mi WSW 6.9 mph - N/A   Clear
8:13 AM 66.2 °F 51.8 °F 60% 29.95 in 10.0 mi WSW 8.1 mph - N/A   Clear
8:33 AM 69.8 °F 51.8 °F 53% 29.95 in 10.0 mi WSW 8.1 mph - N/A   Clear
8:53 AM 69.8 °F 50.0 °F 49% 29.95 in 10.0 mi West 10.4 mph - N/A   Clear
9:13 AM 71.6 °F 51.8 °F 50% 29.95 in 10.0 mi WSW 10.4 mph - N/A   Clear
9:33 AM 71.6 °F 51.8 °F 50% 29.95 in 10.0 mi WSW 11.5 mph - N/A   Clear
9:53 AM 73.4 °F 53.6 °F 50% 29.95 in 10.0 mi SW 11.5 mph - N/A   Clear
10:13 AM 75.2 °F 51.8 °F 44% 29.94 in 10.0 mi SW 11.5 mph 16.1 mph N/A   Clear
10:33 AM 77.0 °F 51.8 °F 41% 29.94 in 10.0 mi SW 9.2 mph - N/A   Clear
10:53 AM 78.8 °F 48.2 °F 34% 29.93 in 10.0 mi West 12.7 mph 18.4 mph N/A   Clear
11:14 AM 80.6 °F 44.6 °F 28% 29.93 in 10.0 mi West 13.8 mph - N/A   Clear
11:32 AM 80.6 °F 44.6 °F 28% 29.92 in 10.0 mi WNW 19.6 mph 24.2 mph N/A   Clear
11:53 AM 80.6 °F 44.6 °F 28% 29.92 in 10.0 mi West 15.0 mph 28.8 mph N/A   Clear
12:14 PM 80.6 °F 44.6 °F 28% 29.92 in 10.0 mi West 17.3 mph 26.5 mph N/A   Unknown
12:33 PM 82.4 °F 42.8 °F 25% 29.91 in 10.0 mi WSW 18.4 mph 26.5 mph N/A   Clear
12:53 PM 82.4 °F 46.4 °F 28% 29.91 in 10.0 mi West 13.8 mph 21.9 mph N/A   Clear
1:14 PM 82.4 °F 42.8 °F 25% 29.92 in 10.0 mi West 17.3 mph 26.5 mph N/A   Clear
1:33 PM 84.2 °F 44.6 °F 25% 29.91 in 10.0 mi West 18.4 mph 28.8 mph N/A   Clear
1:53 PM 84.2 °F 42.8 °F 23% 29.91 in 10.0 mi West 16.1 mph 26.5 mph N/A   Clear
2:13 PM 82.4 °F 44.6 °F 26% 29.91 in 10.0 mi West 19.6 mph 25.3 mph N/A   Clear
2:33 PM 84.2 °F 44.6 °F 25% 29.91 in 10.0 mi West 18.4 mph 25.3 mph N/A   Scattered Clouds
2:54 PM 82.4 °F 46.4 °F 28% 29.90 in 10.0 mi West 12.7 mph - N/A   Scattered Clouds
3:13 PM 84.2 °F 48.2 °F 29% 29.90 in 10.0 mi West 16.1 mph 24.2 mph N/A   Clear
3:33 PM 84.2 °F 48.2 °F 29% 29.89 in 10.0 mi West 19.6 mph 27.6 mph N/A   Clear
3:54 PM 84.2 °F 48.2 °F 29% 29.89 in 10.0 mi West 17.3 mph 21.9 mph N/A   Clear
4:13 PM 80.6 °F 48.2 °F 32% 29.90 in 10.0 mi WSW 20.7 mph 31.1 mph N/A Thunderstorm Scattered Clouds
4:33 PM 71.6 °F 55.4 °F 57% 29.90 in 10.0 mi SW 17.3 mph 27.6 mph N/A   Scattered Clouds
4:54 PM 69.8 °F 59.0 °F 68% 29.94 in 7.0 mi WSW 28.8 mph 38.0 mph 0.01 in Rain , Thunderstorm Rain
5:13 PM 69.8 °F 60.8 °F 73% 29.91 in 10.0 mi WSW 16.1 mph 23.0 mph 0.01 in   Scattered Clouds
5:33 PM 69.8 °F 60.8 °F 73% 29.90 in 10.0 mi SW 15.0 mph 18.4 mph 0.01 in   Clear
5:54 PM 75.2 °F 60.8 °F 61% 29.89 in 10.0 mi WSW 13.8 mph - 0.01 in   Clear
6:13 PM 75.2 °F 57.2 °F 53% 29.88 in 10.0 mi WSW 13.8 mph - N/A   Clear
6:33 PM 75.2 °F 55.4 °F 50% 29.88 in 10.0 mi WSW 16.1 mph 20.7 mph N/A   Clear
6:54 PM 75.2 °F 55.4 °F 50% 29.88 in 10.0 mi WSW 11.5 mph 17.3 mph N/A   Clear
7:13 PM 77.0 °F 55.4 °F 47% 29.87 in 10.0 mi WSW 16.1 mph - N/A   Clear
7:33 PM 75.2 °F 53.6 °F 47% 29.87 in 10.0 mi WSW 16.1 mph 20.7 mph N/A   Clear
7:53 PM 75.2 °F 53.6 °F 47% 29.87 in 10.0 mi WSW 13.8 mph - N/A   Clear
8:13 PM 73.4 °F 53.6 °F 50% 29.87 in 10.0 mi WSW 10.4 mph - N/A   Clear
8:33 PM 71.6 °F 55.4 °F 57% 29.87 in 10.0 mi WSW 9.2 mph - N/A   Clear
8:53 PM 69.8 °F 55.4 °F 60% 29.87 in 10.0 mi WSW 8.1 mph - N/A   Clear
9:13 PM 68.0 °F 55.4 °F 64% 29.87 in 10.0 mi WSW 8.1 mph - N/A   Clear
9:33 PM 64.4 °F 55.4 °F 73% 29.88 in 10.0 mi SW 10.4 mph - N/A   Clear
9:53 PM 66.2 °F 55.4 °F 68% 29.89 in 10.0 mi WSW 9.2 mph - N/A   Clear
10:13 PM 66.2 °F 55.4 °F 68% 29.90 in 10.0 mi WSW 9.2 mph - N/A   Clear
10:34 PM 66.2 °F 57.2 °F 73% 29.91 in 10.0 mi West 8.1 mph - N/A   Clear
10:53 PM 64.4 °F 55.4 °F 73% 29.91 in 10.0 mi West 8.1 mph - N/A   Clear
11:13 PM 66.2 °F 55.4 °F 68% 29.92 in 10.0 mi WNW 9.2 mph - N/A   Clear
11:34 PM 64.4 °F 53.6 °F 68% 29.91 in 10.0 mi North - - N/A   Clear
11:53 PM 64.4 °F 53.6 °F 68% 29.92 in 10.0 mi NW 5.8 mph - N/A   Clear